TimeCDT,TemperatureF,Dew PointF,Humidity,Sea Level PressureIn,VisibilityMPH,Wind Direction,Wind SpeedMPH,Gust SpeedMPH,PrecipitationIn,Events,Conditions,WindDirDegrees,DateUTC
12:53 AM,62.1,48.0,60,29.94,10.0,Calm,Calm,-,N/A,,Clear,0,2011-10-14 05:53:00
1:53 AM,63.0,48.0,58,29.94,10.0,Calm,Calm,-,N/A,,Clear,0,2011-10-14 06:53:00
2:53 AM,59.0,48.9,69,29.92,10.0,SW,5.8,-,N/A,,Clear,220,2011-10-14 07:53:00
3:53 AM,57.9,50.0,75,29.91,10.0,SW,4.6,-,N/A,,Clear,220,2011-10-14 08:53:00
4:53 AM,57.9,51.1,78,29.91,10.0,SSW,3.5,-,N/A,,Clear,210,2011-10-14 09:53:00
5:53 AM,57.0,50.0,77,29.92,10.0,Calm,Calm,-,N/A,,Clear,0,2011-10-14 10:53:00
6:53 AM,57.0,50.0,77,29.94,10.0,Calm,Calm,-,N/A,,Clear,0,2011-10-14 11:53:00
7:53 AM,59.0,50.0,72,29.95,10.0,SSW,4.6,-,N/A,,Clear,200,2011-10-14 12:53:00
8:53 AM,63.0,52.0,67,29.96,10.0,Calm,Calm,-,N/A,,Clear,0,2011-10-14 13:53:00
9:53 AM,69.1,48.0,47,29.97,10.0,South,9.2,-,N/A,,Clear,180,2011-10-14 14:53:00
10:53 AM,75.2,46.4,36,30.01,10.0,SSE,6.9,-,N/A,,Clear,160,2011-10-14 15:53:00
11:53 AM,80.1,46.0,30,29.98,10.0,South,11.5,-,N/A,,Clear,170,2011-10-14 16:53:00
12:53 PM,82.0,45.0,27,29.96,10.0,South,11.5,-,N/A,,Clear,190,2011-10-14 17:53:00
1:53 PM,82.4,44.6,26,29.95,10.0,SSE,10.4,-,N/A,,Clear,160,2011-10-14 18:53:00
2:53 PM,84.2,44.6,25,29.92,10.0,South,9.2,-,N/A,,Clear,170,2011-10-14 19:53:00
3:53 PM,86.0,43.0,22,29.89,10.0,SSE,12.7,19.6,N/A,,Clear,160,2011-10-14 20:53:00
4:53 PM,86.0,44.1,23,29.88,10.0,South,11.5,-,N/A,,Partly Cloudy,170,2011-10-14 21:53:00
5:53 PM,84.0,43.0,24,29.88,10.0,South,9.2,-,N/A,,Partly Cloudy,170,2011-10-14 22:53:00
6:53 PM,79.0,45.0,30,29.88,10.0,South,8.1,-,N/A,,Partly Cloudy,180,2011-10-14 23:53:00
7:53 PM,73.9,46.9,38,29.89,10.0,SSE,8.1,-,N/A,,Clear,160,2011-10-15 00:53:00
8:53 PM,73.0,46.0,38,29.90,10.0,SSE,6.9,-,N/A,,Clear,150,2011-10-15 01:53:00
9:53 PM,71.1,46.9,42,29.91,10.0,ESE,4.6,-,N/A,,Clear,120,2011-10-15 02:53:00
10:53 PM,72.0,46.0,40,29.93,10.0,Calm,Calm,-,N/A,,Clear,0,2011-10-15 03:53:00
11:53 PM,69.8,46.4,43,29.96,10.0,Calm,Calm,-,N/A,,Clear,0,2011-10-15 04:53:00